Location: Borne
(51.9486°N, 11.5571°E)
Time: 06:59:40
(UTC+00:00)

Daily predictions for brighter satellites

Satellite Brightness Start Highest point End
(mag) Time Altitude Azimuth Time Altitude Azimuth Time Altitude Azimuth
Cosmos 2297 Rocket 2.5 16:18:17 10° NNW 16:23:46 46° NE 16:29:13 10° ESE
Cosmos 1420 Rocket 4.5 16:18:38 10° SW 16:23:52 67° WNW 16:29:06 10° NNE
Cosmos 2369 Rocket 3.2 16:18:51 10° WSW 16:24:19 46° NW 16:29:50 10° NNE
Meteor 1-11 4.3 16:19:14 10° N 16:24:57 70° ENE 16:30:42 10° SSE
Aureole 3 Rocket 4.5 16:22:51 10° SE 16:26:13 22° ENE 16:30:26 10° NNE
COSMOS 2487 3.7 16:24:02 10° NW 16:27:22 47° WSW 16:30:41 10° S
Cosmos 1340 3.7 16:24:49 10° N 16:28:01 25° ENE 16:31:11 10° SE
COSMO-SKYMED 1 3.8 16:26:49 10° NE 16:30:10 21° E 16:33:31 10° SE
H-2A R/B 4.4 16:28:47 10° SSW 16:32:15 39° W 16:35:46 10° NNW
H-2A R/B 2.0 16:28:14 10° NNE 16:32:26 89° E 16:36:34 10° SSW
CORIOLIS 4.1 16:27:23 10° SSE 16:32:44 82° ENE 16:38:08 10° NNW
FengYun 1-2 T 4.3 16:28:17 10° SSE 16:33:53 67° ENE 16:39:28 10° NNW
Cosmos 1110 Rocket 4.2 16:29:57 10° S 16:35:00 51° ESE 16:40:03 10° NNE
NOSS 2-2 (C) 4.4 16:31:13 10° NW 16:36:22 79° NE 16:43:35 10° SE
Timation 2 Rocket 4.2 16:32:14 10° NNW 16:38:50 83° ENE 16:45:39 10° SE
Lacrosse 5 2.4 16:34:15 10° W 16:39:13 53° NNW 16:44:12 10° ENE
Cosmos 1825 Rocket 3.5 16:35:10 10° N 16:39:40 80° E 16:44:05 10° SSE
Cosmos 1486 Rocket 4.5 16:36:31 10° NNW 16:41:36 41° NE 16:46:37 10° SE
ADEOS Rocket 3.3 16:36:05 10° NNE 16:42:25 85° WNW 16:49:26 10° SSW
Envisat 4.0 16:39:16 10° S 16:44:12 52° W 16:49:12 10° NNW
Cosmos 292 Rocket 4.2 16:39:48 10° S 16:44:17 41° ESE 16:48:50 10° NE
Meteor 2-21 Rocket 4.4 16:38:12 10° N 16:44:24 74° ENE 16:50:32 10° SSE
Aureole 3 4.0 16:42:35 10° SE 16:44:54 20° E 16:47:10 10° NE
FALCON 9 DEB 3.2 16:42:24 10° W 16:45:50 72° N 16:48:52 13° E
Okean O Rocket 2.1 16:41:54 10° S 16:46:14 66° WSW 16:50:35 10° NNW
YAOGAN 1 3.5 16:44:32 10° ESE 16:48:12 27° ENE 16:51:52 10° N
ERBS 3.3 16:45:08 10° WNW 16:48:16 36° N 16:51:09 12° ENE
FALCON 9 DEB 4.5 16:46:23 10° SSW 16:48:59 23° SE 16:51:05 13° E
USA 281 3.8 16:42:31 10° SSE 16:49:02 65° WSW 16:55:36 10° NNW
Landsat 5 4.3 16:47:24 10° N 16:51:09 49° WNW 16:54:56 10° SW
FALCON 9 DEB 4.3 16:50:31 10° SSW 16:53:12 25° SE 16:55:10 14° E
Cosmos 2219 3.2 16:48:22 10° NNW 16:54:10 73° ENE 16:59:55 10° SE
CZ-2C R/B 3.8 16:49:17 10° SE 16:54:33 38° ENE 16:59:39 10° N
Feng Yun 1-1 Rocket 4.4 16:48:40 10° SSE 16:54:34 76° ENE 17:00:31 10° NNW
SMAP 3.9 16:50:35 10° S 16:55:10 56° W 16:59:46 10° NNW
Cosmos 1455 4.1 16:55:22 10° ESE 16:56:10 12° ESE 16:56:10 12° ESE
Cosmos 1726 Rocket 3.6 16:54:00 10° S 16:58:15 58° E 17:02:35 10° NNE
Cosmos 1758 Rocket 4.5 16:54:04 10° NNW 16:58:23 54° W 17:02:38 10° S
Cosmos 1943 Rocket 4.1 16:54:11 10° W 16:58:33 23° NW 17:02:54 10° NNE
USA 307 2.9 16:56:49 10° WNW 17:01:08 82° NNE 17:04:41 15° ESE
Cosmos 1553 Rocket 4.4 16:55:32 10° SSE 17:01:21 40° E 17:07:07 10° NNE
Cosmos 2082 4.1 16:57:15 10° NNW 17:02:46 45° NE 17:08:14 10° ESE
Meteor 2-10 Rocket 4.4 16:59:58 10° SE 17:04:16 26° E 17:08:28 10° NE
CZ-4B R/B 1.2 17:01:11 10° NNE 17:04:28 82° ESE 17:07:37 10° SSW
FALCON 9 DEB 4.1 17:02:18 10° SSW 17:05:09 29° SSE 17:06:44 19° E
Cosmos 2228 2.9 17:01:04 10° S 17:05:19 88° E 17:09:39 10° N
USA 308 2.9 17:01:39 10° WNW 17:05:58 85° NNE 17:09:20 16° ESE
Cosmos 1939 Rocket 2.7 17:02:05 10° SSE 17:06:02 70° ENE 17:09:56 10° N
Cosmos 2278 Rocket 4.5 17:04:56 10° NNW 17:06:47 11° N 17:08:39 10° N
ATLAS 5 CENTAUR R/B 3.3 17:04:55 10° W 17:08:47 28° NNW 17:13:11 10° NE
CZ-4 R/B 4.4 17:06:28 10° SSE 17:10:35 63° ENE 17:14:43 10° N
Helios 1A Rocket 2.9 17:09:08 10° SSE 17:13:12 61° ENE 17:17:16 10° N
Cosmos 1606 Rocket 3.6 17:09:30 10° SSW 17:13:53 82° WNW 17:18:20 10° N
FALCON 9 DEB 3.8 17:13:46 10° SW 17:16:44 35° SSE 17:17:56 25° ESE
GENESIS II 4.2 17:12:45 10° SW 17:16:48 85° SE 17:20:07 15° NE
ARGOS 3.9 17:13:16 10° ESE 17:18:02 33° ENE 17:22:50 10° N
SKYMED 2 3.6 17:14:15 10° NNE 17:18:34 57° E 17:22:51 10° S
Okean-O 2.6 17:15:17 10° SSE 17:19:40 63° ENE 17:24:04 10° N
Cosmos 2151 4.4 17:16:48 10° NNE 17:19:27 19° ENE 17:19:27 19° ENE
Cosmos 1689 Rocket 2.1 17:17:02 10° NNE 17:19:52 49° E 17:22:41 10° S
SL-08 R/B 4.4 17:14:21 10° N 17:20:33 70° ENE 17:26:39 10° SSE
Cosmos 1656 4.0 17:17:41 10° S 17:22:56 44° ESE 17:28:18 10° NE
Cosmos 1745 Rocket 4.1 17:17:31 10° N 17:23:44 56° ENE 17:29:56 10° SSE
Cosmos 1400 Rocket 2.8 17:21:31 10° S 17:25:36 67° E 17:29:39 10° NNE
PSLV R/B 4.0 17:22:43 10° NNE 17:26:52 56° ESE 17:30:57 10° S
H-2A R/B 2.4 17:22:21 10° SE 17:27:31 47° ENE 17:32:45 10° N
Cosmos 2227 Rocket 2.2 17:22:25 10° NNW 17:28:07 85° WSW 17:33:47 10° SSE
Ariane Rocket 4.2 17:27:38 21° ENE 17:28:26 22° NE 17:32:19 10° N
Cosmos 2058 3.0 17:24:34 10° N 17:28:36 51° ENE 17:32:35 10° SSE
GEOS 3 Rocket 3.7 17:24:32 15° ESE 17:29:03 70° NE 17:34:26 10° NW
Cosmos 1892 2.6 17:26:04 10° N 17:29:58 72° ENE 17:33:50 10° SSE
CZ-4 R/B 1.1 17:26:08 10° SSE 17:29:59 71° ENE 17:33:51 10° N
Cosmos 2263 Rocket 3.2 17:28:45 10° NNW 17:33:41 29° NE 17:35:33 24° ENE
Cosmos 1408 2.6 17:30:35 10° N 17:34:10 52° ENE 17:37:14 13° SSE
BREEZE-M DEB (TANK) 4.5 17:31:36 10° W 17:35:49 88° N 17:46:14 21° E
CSL-04 Rocket 3.8 17:30:26 10° SE 17:35:50 56° ENE 17:41:13 10° N
BREEZE-M R/B 3.8 17:28:03 10° W 17:35:56 61° S 17:37:09 32° ESE
Cosmos 1386 Rocket 4.5 17:30:47 10° N 17:37:11 66° ENE 17:43:30 10° SSE
NOSS 3-4 (A) 4.0 17:33:28 10° NW 17:40:01 53° NNE 17:44:11 25° E
NOSS 3-4 (C) 4.0 17:33:35 10° NW 17:40:07 53° NNE 17:44:16 26° E
CZ-4C R/B 3.5 17:34:40 10° NW 17:40:37 37° NNE 17:44:25 23° ENE
Meteor 2-1 Rocket 4.3 17:37:16 10° SSE 17:42:31 47° E 17:47:48 10° NNE
Cosmos 1300 3.8 17:40:21 10° SSW 17:44:02 46° WNW 17:47:44 10° N
Cosmos 2058 Rocket 3.3 17:42:47 10° SSW 17:47:16 75° WNW 17:51:49 10° N
Cosmos 1697 Rocket 3.1 17:42:24 10° S 17:47:33 38° ESE 17:49:38 28° ENE
SL-4 R/B 1.7 17:44:35 10° W 17:48:10 79° S 17:49:04 49° ESE
SeaSat 1 2.5 17:46:27 29° ESE 17:48:49 56° NE 17:53:40 10° NNW
Cosmos 1346 Rocket 2.7 17:44:53 10° NNW 17:48:54 87° ENE 17:52:54 10° SSE
CZ-2D R/B 3.9 17:45:16 10° S 17:49:01 55° W 17:52:47 10° NNW
CRYOSAT 2 4.4 17:46:00 10° NNE 17:50:48 55° E 17:55:34 10° SSE
Cosmos 1825 2.2 17:47:25 10° N 17:51:11 54° ENE 17:51:37 50° ESE
USA 305 3.1 17:47:31 10° WNW 17:51:49 66° SSW 17:53:27 35° SE
NOSS 3-3 (A) 4.3 17:46:54 10° S 17:52:17 39° ESE 17:54:18 31° E
NOSS 3-3 (C) 4.4 17:47:00 10° S 17:52:25 39° ESE 17:54:24 31° E
Cosmos 1709 Rocket 4.1 17:47:14 10° N 17:53:31 55° ENE 17:59:42 10° SSE
USA 215 3.3 17:51:39 29° E 17:55:10 67° NNE 18:01:39 10° WNW
Cosmos 44 3.4 17:51:25 10° SW 17:55:59 69° NW 17:59:04 22° NE
Cosmos 1315 Rocket 3.0 17:52:54 10° S 17:56:19 49° ESE 17:56:19 49° ESE
ERS-2 4.4 17:54:43 10° N 17:57:48 26° WNW 18:00:52 10° WSW
USA 306 3.2 17:53:57 10° WNW 17:58:11 61° SSW 17:59:35 38° SE
SJ-11-01 4.1 17:54:05 10° SSE 17:58:45 79° ENE 18:03:27 10° NNW
BREEZE-M R/B 3.8 17:58:03 10° W 18:02:05 66° S 18:05:18 32° ESE
ATLAS 2AS CENTAUR R/B 3.1 17:54:39 10° NW 18:02:14 56° NNE 18:05:17 34° E
Cosmos 968 Rocket 4.1 17:58:13 10° NNW 18:03:21 56° WSW 18:08:24 10° S
SJ 16-02 3.5 18:02:53 10° N 18:04:08 14° NNE 18:04:08 14° NNE
COSMO-SKYMED 1 3.4 18:02:23 10° N 18:06:37 52° WNW 18:10:51 10° SW
HJ-1C 3.5 18:07:27 65° N 18:07:27 65° N 18:10:24 10° NNW
MOS 1 Rocket 3.2 18:02:50 10° NNE 18:07:26 62° E 18:12:19 10° S
Cosmos 2297 Rocket 3.5 18:02:32 10° NW 18:07:46 39° WSW 18:12:59 10° S
Cosmos 1076 Rocket 3.4 18:04:36 10° NNW 18:08:53 87° WSW 18:11:35 22° S
COSMOS 2455 4.4 18:05:42 10° NW 18:10:11 21° NNE 18:12:00 18° NE
Cosmos 1980 Rocket 3.7 18:05:22 10° SSE 18:07:19 20° SSE 18:07:19 20° SSE
Cosmos 1777 Rocket 4.2 18:05:28 10° NNW 18:10:31 47° ENE 18:10:51 46° ENE
IRS-1A Rocket 4.5 18:10:35 44° E 18:11:16 46° ENE 18:16:32 10° N
Cosmos 883 Rocket 4.4 18:06:17 10° S 18:12:17 58° E 18:18:17 10° NNE
Aureole 3 Rocket 4.3 18:08:55 10° SSW 18:13:02 49° WNW 18:18:46 10° N
CSL-04 Debris 4.3 18:10:52 10° S 18:16:18 74° WSW 18:21:49 10° NNW
Cosmos 2315 Rocket 4.0 18:10:23 10° SSE 18:16:20 52° E 18:22:19 10° NNE
S3M 3.9 18:10:43 10° S 18:16:51 89° W 18:23:05 10° N
MOS 1 4.5 18:18:02 47° ENE 18:18:25 48° ENE 18:23:51 10° N
Cosmos 2227 4.3 18:15:50 10° NNW 18:21:20 51° NE 18:21:43 50° ENE
Resurs 01 Rocket 4.0 18:24:28 12° NNE 18:24:28 12° NNE 18:24:49 10° NNE
MetOp-A 4.3 18:22:01 49° ENE 18:22:01 49° ENE 18:26:59 10° N
Lacrosse 5 2.2 18:17:53 10° WNW 18:22:50 51° N 18:23:30 48° NE
FALCON 9 DEB 4.0 18:19:29 10° WNW 18:22:07 49° W 18:22:07 49° W
YAOGAN 1 3.8 18:20:03 10° S 18:24:09 41° W 18:28:17 10° NNW
FALCON 9 DEB 4.5 18:21:31 10° WSW 18:23:30 34° WSW 18:23:30 34° WSW
ERBS 3.9 18:21:52 10° WNW 18:24:02 30° NNW 18:24:02 30° NNW
Cosmos 2360 4.2 18:20:46 10° S 18:26:15 57° ESE 18:26:15 57° ESE
Cosmos 1812 Rocket 4.0 18:27:15 10° S 18:35:44 12° N 18:36:04 10° N
Cosmos 1455 3.3 18:28:43 10° SSW 18:31:13 38° SW 18:31:13 38° SW
CZ-2C R/B 4.3 18:28:47 10° S 18:34:20 46° W 18:39:44 10° NNW
Meteor 2-3 Rocket 3.8 18:29:17 10° N 18:34:44 59° ENE 18:34:44 59° ENE
USA 307 4.0 18:37:01 10° WNW 18:40:52 37° SW 18:40:52 37° SW
USA 308 4.2 18:41:53 10° WNW 18:45:31 35° SW 18:45:31 35° SW
Meteor 2-10 Rocket 4.2 18:40:54 10° SSW 18:46:03 52° WNW 18:51:03 10° N
Cosmos 2278 Rocket 4.3 18:50:49 10° N 18:53:37 14° NNE 18:53:38 14° NNE
ATLAS 5 CENTAUR R/B 3.6 18:50:58 10° NW 18:54:54 23° N 18:55:00 23° N
Cosmos 2151 4.3 18:53:20 10° NNW 18:56:04 36° NW 18:56:04 36° NW
ARGOS 3.9 18:54:41 21° SSW 18:58:07 50° W 19:03:26 10° NNW
Cosmos 1992 Rocket 4.4 18:53:07 10° SW 18:58:16 59° WNW 18:59:48 42° N
SL-08 RB Rocket 4.5 19:00:38 49° WNW 19:00:38 49° WNW 19:04:21 10° NNW
Cosmos 2369 3.7 18:57:32 10° SW 19:03:11 78° WNW 19:03:11 78° WNW
CZ-4 R/B 4.4 19:03:37 10° WSW 19:05:29 13° W 19:07:23 10° WNW
Geosat 4.4 19:06:43 61° WNW 19:06:43 61° WNW 19:11:33 10° SW
Ariane Rocket 3.5 19:07:50 58° NW 19:07:50 58° NW 19:12:03 10° NNW
Cosmos 1844 Rocket 4.1 19:01:57 10° NNW 19:05:18 27° N 19:05:18 27° N
H-2A R/B 3.7 19:02:14 10° SSW 19:07:07 33° W 19:12:03 10° NNW
Cosmos 2263 Rocket 2.6 19:12:29 10° NNW 19:17:16 61° NW 19:17:16 61° NW
SeaSat 1 4.0 19:26:15 29° WSW 19:26:35 29° WSW 19:30:55 10° NW
CZ-4C R/B 2.9 19:23:15 10° NW 19:29:36 73° N 19:29:36 73° N
NOSS 3-4 (A) 4.1 19:24:24 10° NW 19:31:11 59° SW 19:31:39 58° SW
NOSS 3-4 (C) 4.1 19:24:31 10° NW 19:31:18 59° SW 19:31:43 58° SW
Cosmos 1697 Rocket 3.5 19:26:02 10° SW 19:31:25 47° NW 19:31:25 47° NW
Cosmos 2184 Rocket 4.4 19:26:07 10° NNW 19:31:04 57° NNW 19:31:04 57° NNW
USA 215 3.5 19:39:00 63° WSW 19:39:00 63° WSW 19:44:46 10° WNW
SJ 16-02 4.1 19:40:29 10° NNW 19:41:07 14° NNW 19:41:07 14° NNW
ATLAS 2AS CENTAUR R/B 3.3 19:46:02 10° NW 19:52:43 53° WSW 19:52:43 53° WSW
COSMOS 2455 4.4 19:51:59 10° NNW 19:55:08 28° NNW 19:55:08 28° NNW
Lacrosse 5 4.2 20:01:02 10° WNW 20:02:41 21° WNW 20:02:41 21° WNW
